Flag for Falkland Islands Weather past 2 weeks in Stanley, Falkland Islands

Now
48 °F

Scattered clouds.


Feels Like: 43 °F
Forecast: N/A
Wind: 14 mph from Southwest

Location: Mount Pleasant Airport

Current Time: Jan 25, 2015 at 7:18:12 PM

Latest Report: Jan 25, 2015 at 5:50 PM


Visibility: N/A

Pressure: 29.77 "Hg

Humidity: 66%

Dew point: 37 °F

Location of StanleyLocation

Historic Weather in Stanley — Graph

°F

Stanley temperature yesterday

Maximum temperature yesterday: 66 °F (at 1:50 PM)
Minimum temperature yesterday: 48 °F (at 12:50 AM)
Average temperature yesterday: 55 °F

Past Weeks' High & Low Weather Summary

 TemperatureHumidityPressure
High77 °F (Jan 22, 1:50 PM)100% (Jan 13, 11:50 PM)29.89 "Hg (Jan 13, 11:50 PM)
Low36 °F (Jan 12, 5:50 AM)34% (Jan 22, 5:50 PM)29.06 "Hg (Jan 10, 5:50 PM)
Average48 °F75%29.60 "Hg
* Reported Jan 10 5:50 PM — Jan 25 5:50 PM, Stanley, Weather by CustomWeather, © 2014

Note: Actual official high and low records may vary slightly from our data, if they occured in-between our weather recording intervals... More about our weather records

Advertising

Stanley weather history for previous 24 hours

 ConditionsComfort  
Time TempWeatherWind HumidityBarometerVisibility
5:50 PM
Jan 25
48 °FScattered clouds.14 mph66%29.77 "HgN/A
4:50 PM48 °FPartly sunny.16 mph58%29.77 "HgN/A
3:50 PM50 °FScattered clouds.18 mph50%29.77 "HgN/A
2:50 PM48 °FPartly sunny.18 mph54%29.77 "HgN/A
1:50 PM48 °FScattered clouds.22 mph54%29.74 "HgN/A
12:50 PM50 °FPartly sunny.21 mph54%29.74 "HgN/A
11:50 AM48 °FPartly sunny.22 mph54%29.74 "HgN/A
10:50 AM48 °FPartly sunny.22 mph54%29.71 "HgN/A
9:50 AM45 °FPartly sunny.21 mph66%29.71 "HgN/A
8:50 AM46 °FPartly sunny.23 mph53%29.71 "HgN/A
7:50 AM45 °FPartly sunny.22 mph66%29.68 "HgN/A
6:50 AM43 °FPartly sunny.22 mph71%29.68 "HgN/A
5:50 AM43 °FPartly sunny.21 mph76%29.65 "HgN/A
4:50 AM45 °FPassing clouds.20 mph81%29.62 "HgN/A
3:50 AM45 °FMostly cloudy.20 mph87%29.59 "HgN/A
2:50 AM46 °FPartly cloudy.21 mph93%29.59 "HgN/A
1:50 AM46 °FDrizzle. Overcast.20 mph100%29.56 "Hg4 mi
12:50 AM50 °FPassing clouds.15 mph94%29.53 "HgN/A
11:50 PM
Jan 24
50 °FMostly cloudy.10 mph94%29.53 "HgN/A
10:50 PM50 °FLight rain. Passing clouds.9 mph94%29.53 "HgN/A
9:50 PM50 °FLight rain. Passing clouds.10 mph94%29.53 "HgN/A
8:50 PM54 °FBroken clouds.8 mph82%29.50 "HgN/A
7:50 PM55 °FPartly sunny.5 mph77%29.47 "HgN/A
Weather by CustomWeather, © 2014

See weather overviewHow to use our weather pages